Temp_Advection
nan nan nan nan nan nan nan nan nan nan nan nan nan nan nan nan nan nan nan nan nan nan nan nan nan nan nan nan nan nan nan nan nan nan nan nan nan nan nan nan nan nan nan
nan -0 0 0 0 0 0 0 0 -0 0 0 0 -0 -0 -0 -0 0 0 0 -0 -0 -0 -0 -0 0 -0 0 -0 -1 -1 0 -0 -0 0 -0 -0 -0 -1 -0 0 -0 nan
nan -1 0 0 0 0 0 0 -0 0 0 0 -0 -0 -0 -0 0 0 0 -0 -0 -0 -0 -1 -1 -0 0 1 0 -0 -1 -1 -0 0 1 -1 -1 0 -0 -1 -1 -0 nan
nan -0 -0 0 0 0 0 0 -0 0 0 0 -0 -0 0 -0 0 0 0 -0 -0 -0 -1 -1 -0 -0 -0 0 1 1 -0 -1 -1 -1 0 0 -0 -0 -1 -0 0 0 nan
nan 0 -0 0 0 0 0 0 0 -0 0 0 -0 -0 0 0 0 0 -0 -0 -0 -0 -0 -1 -1 -0 0 0 0 1 0 -0 -1 -2 -0 0 -1 -0 0 -0 -1 -0 nan
nan 0 0 0 0 0 0 0 0 0 0 0 -0 -0 -0 0 0 0 -0 -0 -0 -0 -0 -0 -0 -0 -0 0 0 1 1 -1 -2 -1 -0 1 0 -0 -0 -1 -1 0 nan
nan 0 0 0 0 0 0 0 -0 0 0 0 -0 -0 -0 0 0 0 -0 -0 -0 -0 -0 -0 -0 -0 -0 -0 0 0 1 -0 -1 -2 -0 0 -1 -0 0 -0 -0 -0 nan
nan -0 0 0 0 0 0 0 -0 -0 0 0 0 -0 -0 -0 0 -0 -0 -0 -0 -0 -0 -0 -0 0 0 0 1 0 -0 0 -1 -1 0 -1 -0 -0 -1 0 -0 -0 nan
nan -0 -0 0 0 0 0 0 0 0 0 -0 0 0 0 0 -0 -0 -0 -0 -0 -0 -0 -0 0 0 0 0 0 0 -1 -0 -0 -1 0 -0 -0 -0 -0 0 -0 0 nan
nan 0 0 -0 0 0 0 0 0 0 0 0 0 0 -0 0 0 -0 -0 -0 -0 -0 -0 -0 -0 -0 -0 0 0 0 -0 -1 -0 -1 0 0 -0 -0 -0 -0 -0 -0 nan
nan 1 0 0 -0 0 0 1 0 0 0 0 0 0 0 -0 0 -0 -0 -0 -0 -1 -0 -0 0 0 -0 -0 0 0 -0 -1 -1 -0 0 -0 -0 -0 -0 -0 -0 -0 nan
nan 0 0 -0 -0 -0 0 0 1 1 0 0 0 0 0 -0 0 -0 -0 -0 -0 -1 -1 -0 -0 0 0 -0 -0 0 -0 -1 -1 -0 0 -0 -0 0 -0 -0 0 -0 nan
nan -2 -1 -0 -0 -0 -0 -0 0 0 0 0 0 0 0 -0 0 0 -0 -1 -0 -0 -0 -0 -0 0 0 0 -0 -0 0 -1 -1 -1 -0 0 -0 0 -0 -0 -0 0 nan
nan -0 -1 -0 -0 -0 -1 -1 -1 -1 0 -0 0 0 0 -0 -0 0 -0 -0 -1 -0 -0 0 -0 -0 0 0 0 -0 0 -0 -1 -1 -0 0 -0 -0 0 -0 -0 -0 nan
nan 1 0 -0 -0 -0 -0 -0 -1 -0 0 -0 0 0 0 0 -0 0 0 -0 -0 -0 -0 -0 -0 -0 -0 0 0 -0 0 0 -0 -1 -1 -0 0 -0 -0 0 -0 -0 nan
nan 0 0 0 0 0 -0 -0 0 0 -0 0 0 0 0 0 0 -0 0 -0 -0 -0 -0 -0 0 -0 -0 0 -0 0 0 0 -0 -0 -1 -1 -0 -1 -0 -0 0 -0 nan
nan 0 1 1 1 0 0 0 1 0 -0 -0 -0 -0 -0 0 0 0 0 -0 -0 -0 -0 -0 -0 0 -0 0 -0 0 0 0 0 0 0 -0 0 -0 -1 -1 -0 -0 nan
nan 1 1 1 0 0 0 0 0 -0 -0 -0 0 -0 -0 -0 -0 -0 -0 0 -0 0 0 -0 -0 -0 0 0 0 0 0 0 0 0 0 0 0 0 0 -0 -0 -1 nan
nan 0 0 0 0 0 0 0 0 0 0 -0 0 -0 -0 -0 0 0 -0 -0 0 0 -0 -0 -0 -0 -0 -0 0 0 0 0 0 0 0 0 0 0 -0 -0 -0 -0 nan
nan -0 -0 0 1 0 0 0 0 0 0 0 -0 -0 -0 -0 0 0 0 0 -0 -0 -0 0 0 0 -0 -0 -0 0 0 0 0 0 0 0 0 -0 0 0 -0 0 nan
nan -0 0 0 0 -0 0 0 -0 -0 -0 -0 -0 0 0 0 -0 -0 -0 -0 -0 -0 0 0 0 0 0 -0 -0 -0 0 0 0 0 0 -0 -0 -0 -0 0 0 0 nan
nan 0 -0 -1 -1 0 -0 -0 -0 -0 -0 -0 -0 0 0 0 0 -0 -0 0 -0 -0 0 0 -0 0 -0 -0 0 -0 -0 -0 -0 -0 -0 -0 0 -0 -0 -0 0 0 nan
nan -0 -0 -0 -0 -0 -0 0 0 -0 -0 -0 -0 0 0 0 0 0 0 0 0 -0 -0 -0 0 -0 -0 -0 -0 -0 -0 -0 -0 -0 -0 0 -0 -0 -0 -0 -0 0 nan
nan 0 0 0 0 -0 0 -0 -0 0 -0 -0 0 0 1 0 0 0 0 0 0 0 0 -0 0 -0 -0 -0 -0 -0 -0 0 -0 -0 -0 -0 -0 -0 -0 -0 -0 0 nan
nan 1 1 0 1 0 0 -0 -0 0 -0 0 0 1 1 0 0 0 1 0 0 0 0 0 0 -0 -0 -1 -1 0 0 0 -0 -0 -0 0 -0 -0 0 0 0 -0 nan
nan nan nan nan nan nan nan nan nan nan nan nan nan nan nan nan nan nan nan nan nan nan nan nan nan nan nan nan nan nan nan nan nan nan nan nan nan nan nan nan nan nan nan
Wind_Speed
29 29 26 25 24 24 25 26 25 25 24 24 25 24 23 24 25 26 24 22 20 18 16 15 15 15 15 16 16 23 25 24 20 26 26 28 28 28 28 26 25 28 28
32 30 28 26 25 24 24 25 24 24 23 24 24 23 23 24 24 22 20 18 17 16 15 15 15 17 18 21 22 26 29 29 29 28 30 28 27 27 27 27 28 28 23
32 31 29 27 26 25 24 24 24 23 24 24 23 23 24 23 20 18 18 17 15 16 15 16 21 23 23 22 23 22 24 28 28 29 29 28 25 26 27 27 26 25 27
33 31 30 27 26 26 25 25 24 24 24 23 24 26 24 21 19 17 16 16 16 15 16 20 24 24 21 21 21 20 22 25 27 28 28 27 26 25 25 23 26 28 24
33 31 31 28 27 27 26 25 24 26 25 24 26 26 24 20 16 15 15 16 16 16 18 21 21 23 19 17 18 18 18 23 24 27 26 24 24 23 24 26 26 23 22
35 32 31 29 27 27 27 25 24 26 26 25 25 24 22 18 15 14 15 15 15 17 20 21 20 19 18 16 13 12 15 22 26 25 25 26 25 24 25 24 21 25 26
36 33 31 29 27 27 26 25 25 26 26 24 25 23 20 16 14 14 15 15 16 18 21 22 22 19 17 13 10 12 18 21 24 27 25 25 24 22 22 24 23 25 25
38 35 32 29 27 27 26 26 25 26 25 24 23 21 18 17 14 14 15 15 17 20 22 21 21 18 20 21 18 14 19 21 22 23 25 24 21 22 20 20 22 21 24
35 35 34 32 29 27 26 26 26 26 24 22 21 20 18 17 14 15 15 15 17 21 23 23 20 19 16 17 17 14 19 21 21 21 23 22 21 21 19 21 24 23 23
36 34 34 33 32 29 28 26 27 26 23 22 20 18 18 16 15 15 15 15 18 22 24 23 20 15 15 14 13 12 16 18 20 22 22 20 21 19 20 19 21 19 19
36 35 35 35 34 31 29 27 27 25 23 21 20 16 16 16 15 15 15 16 20 24 27 21 19 18 15 12 12 12 15 17 18 20 20 21 17 18 18 18 17 17 17
36 34 34 35 35 33 30 30 29 27 25 22 19 16 14 14 15 15 15 19 25 28 28 23 18 12 8 10 12 10 12 15 16 18 18 18 16 17 18 16 16 17 16
39 36 35 36 35 34 33 34 32 29 26 23 19 16 14 14 16 14 17 27 32 31 27 23 20 12 9 8 10 11 9 12 14 16 16 16 16 15 15 15 14 14 14
42 38 37 35 36 36 35 36 34 30 27 24 20 16 15 16 17 15 20 30 29 27 23 19 17 16 12 8 6 6 6 9 13 15 15 16 14 14 14 13 12 12 13
40 39 38 37 37 37 37 37 34 30 28 25 20 18 17 14 15 18 23 28 26 23 21 18 15 14 14 8 4 5 7 8 11 11 13 12 15 13 11 14 11 11 12
36 39 38 38 37 38 37 36 33 31 29 24 21 18 17 12 10 19 23 25 23 20 20 17 13 15 13 7 5 6 8 9 9 8 9 11 11 11 12 10 9 10 9
34 37 38 38 37 37 36 35 33 32 28 25 22 18 17 13 9 17 22 22 20 20 18 16 14 15 14 10 6 7 9 10 7 7 5 5 4 4 9 9 9 8 9
35 40 38 37 36 35 36 34 33 31 28 25 23 20 19 15 11 14 21 20 20 19 14 12 18 18 14 10 8 7 7 6 6 5 5 5 4 2 3 4 5 6 7
37 41 39 38 36 32 33 32 33 31 30 25 23 23 21 17 13 12 18 20 17 18 14 15 21 21 18 12 8 7 5 4 4 5 4 3 2 2 1 1 1 1 4
36 37 36 40 39 34 31 32 32 32 31 28 26 23 20 18 16 15 16 20 18 20 16 16 17 15 18 18 16 10 8 7 7 6 5 5 4 3 2 2 2 1 2
38 36 40 45 44 39 37 37 36 37 34 31 28 25 22 21 19 20 18 24 21 22 18 17 19 17 18 16 19 16 15 15 15 11 11 14 13 9 8 6 5 6 4
37 37 41 43 45 43 41 40 38 37 38 33 31 28 25 24 22 24 23 25 25 24 21 21 23 23 20 18 19 17 12 15 18 17 17 16 16 15 13 12 10 10 9
34 34 37 36 41 42 42 43 40 38 36 35 34 30 29 28 26 26 26 27 27 27 26 25 26 25 24 22 22 13 8 10 15 19 19 16 16 15 13 14 15 14 13
34 33 35 35 37 44 43 45 44 46 43 41 36 35 33 30 28 27 29 29 30 27 28 27 27 27 25 25 25 23 16 9 10 9 20 19 18 18 16 17 17 16 17
35 32 31 33 35 40 46 46 44 43 41 41 42 42 33 30 28 28 31 31 33 33 30 28 29 29 28 28 27 23 25 17 13 14 11 17 20 18 17 17 18 20 20
32 33 34 33 33 34 39 42 36 42 42 41 40 42 37 34 31 31 34 34 34 34 35 31 29 29 31 29 29 26 25 26 22 18 18 16 16 15 16 18 18 18 22
Wind_Direction
160 155 152 146 139 135 133 133 130 128 123 121 120 119 119 118 116 117 113 109 107 103 105 101 98 96 93 96 100 105 104 101 96 90 89 87 85 86 87 83 81 80 83
158 156 156 149 142 138 136 134 133 131 127 125 122 121 120 119 122 120 113 111 109 106 100 101 102 101 101 99 102 107 103 100 103 100 94 89 88 88 86 82 86 86 82
159 156 158 152 145 141 138 136 133 130 129 125 120 121 121 122 125 122 111 105 99 99 103 108 107 102 101 104 105 109 107 100 100 97 93 91 90 87 88 88 86 84 84
159 157 159 156 147 144 142 141 136 133 131 125 122 123 120 122 122 112 104 98 97 99 109 114 114 114 111 102 102 111 108 108 106 101 98 96 92 91 90 89 88 92 90
160 159 160 158 151 147 145 143 138 137 133 127 126 127 123 120 116 108 101 99 97 104 113 122 122 116 115 110 102 95 108 108 106 103 98 97 94 93 94 94 95 90 89
160 161 162 161 155 151 148 145 143 140 136 131 132 132 126 121 117 110 103 99 100 109 119 126 125 113 106 105 100 94 112 111 105 99 96 95 95 94 93 93 89 89 89
162 161 163 162 158 154 150 147 146 144 140 137 137 137 130 125 121 112 107 104 108 117 125 126 122 119 117 115 115 112 115 115 104 102 98 96 97 91 95 90 91 95 100
163 161 162 164 161 158 154 152 150 148 144 143 140 140 135 130 126 117 111 107 111 122 132 128 125 119 110 105 95 110 112 105 101 102 97 99 94 97 90 93 103 95 91
165 163 164 166 164 162 158 156 154 152 150 147 145 142 138 133 126 120 114 111 118 129 131 133 130 121 103 100 84 97 113 111 109 102 100 102 102 101 93 96 95 95 102
166 166 163 164 165 164 162 160 158 157 153 152 150 147 143 138 129 125 120 116 126 133 138 140 135 126 115 106 89 93 122 115 105 105 104 104 100 101 101 97 108 108 107
168 168 165 165 166 167 163 162 161 160 156 157 155 158 152 144 136 132 124 122 133 136 138 132 126 124 120 104 89 101 116 111 112 107 105 112 102 108 102 109 101 104 98
172 169 168 167 168 167 165 164 165 163 163 164 162 163 157 144 142 138 129 128 131 138 137 130 125 130 120 107 108 93 114 118 113 109 106 113 110 114 106 98 109 107 111
179 175 174 172 171 171 170 169 166 168 167 169 168 166 162 150 146 140 136 137 135 134 134 131 134 143 130 109 102 86 110 124 118 111 112 111 105 105 110 102 101 102 105
178 181 178 178 176 178 176 174 171 170 173 174 172 172 158 145 143 140 140 142 140 136 137 147 152 154 147 120 96 76 111 131 125 117 118 117 117 112 111 115 103 116 102
180 181 181 182 183 183 180 178 175 175 180 179 175 167 162 146 144 146 145 146 146 145 141 137 149 164 158 147 100 69 121 135 133 128 121 123 128 126 114 120 124 110 122
184 185 185 186 187 187 185 181 179 180 183 182 178 174 174 161 149 157 154 153 155 155 151 149 144 153 158 164 126 109 118 131 134 131 117 128 125 136 130 124 136 124 132
188 189 189 189 189 191 189 184 182 183 186 188 183 177 184 183 173 168 167 164 164 163 159 159 169 164 178 181 162 130 117 116 128 132 122 102 93 116 132 138 134 148 145
193 190 189 190 188 190 191 186 184 186 186 189 188 186 189 187 183 175 177 180 171 164 165 175 190 185 193 191 183 157 134 129 128 136 130 125 104 106 96 135 138 156 174
197 192 190 192 187 185 187 188 186 188 188 192 193 196 193 195 199 191 184 182 177 172 180 192 180 191 193 189 196 186 181 185 191 188 189 174 144 134 39 15 51 81 170
201 201 192 198 190 188 187 187 186 192 192 197 200 203 201 203 204 198 189 189 187 184 198 197 193 191 195 197 205 211 220 234 239 233 245 243 230 240 267 246 301 281 302
205 203 202 199 194 189 189 192 194 201 202 202 205 210 211 212 207 204 202 196 194 193 206 205 198 199 192 201 189 192 205 225 238 248 260 273 267 263 261 255 243 249 272
203 209 205 207 195 194 190 193 199 200 201 206 208 209 219 220 218 212 207 202 200 196 209 210 206 198 206 207 198 190 193 210 214 225 248 252 256 262 261 259 254 253 255
208 212 215 215 206 198 195 195 194 195 195 199 207 210 217 221 224 223 214 208 204 204 206 208 208 212 210 209 214 201 192 221 221 227 227 234 239 250 267 259 264 255 255
207 211 216 217 214 206 202 199 199 202 203 208 212 220 216 219 224 229 220 213 212 211 213 211 213 217 223 222 216 222 233 250 207 222 232 237 238 247 256 263 268 268 261
207 210 215 223 222 216 212 210 209 209 213 222 222 225 221 223 228 232 224 220 217 218 222 221 216 218 224 229 229 223 225 232 227 244 255 242 243 249 252 257 267 268 267
202 206 217 219 225 223 221 218 220 219 222 224 226 227 227 227 229 232 226 224 223 225 225 229 230 228 228 232 236 238 232 228 235 237 245 259 263 264 263 260 259 265 262
Height
1551 1554 1557 1558 1561 1563 1563 1564 1565 1566 1566 1568 1568 1570 1571 1572 1574 1575 1576 1575 1575 1575 1574 1573 1572 1572 1572 1571 1571 1572 1573 1573 1573 1574 1574 1574 1574 1574 1574 1574 1573 1574 1574
1548 1553 1557 1558 1560 1563 1565 1565 1567 1568 1569 1569 1569 1571 1573 1576 1578 1578 1578 1578 1577 1577 1576 1575 1574 1574 1574 1573 1573 1574 1575 1576 1577 1577 1577 1578 1578 1577 1577 1577 1577 1578 1578
1549 1552 1556 1559 1559 1563 1565 1566 1568 1570 1571 1571 1571 1571 1575 1578 1580 1580 1580 1580 1579 1579 1578 1577 1577 1578 1577 1576 1576 1577 1577 1578 1579 1578 1579 1580 1581 1581 1581 1580 1580 1581 1581
1549 1551 1556 1559 1560 1562 1564 1567 1567 1570 1573 1573 1573 1573 1576 1580 1582 1583 1582 1582 1581 1580 1580 1579 1580 1580 1580 1580 1579 1580 1580 1580 1580 1581 1582 1582 1583 1584 1583 1584 1584 1584 1584
1547 1551 1555 1560 1561 1562 1565 1568 1569 1569 1572 1575 1575 1576 1578 1581 1584 1585 1584 1584 1583 1582 1581 1581 1581 1582 1583 1583 1583 1584 1583 1583 1583 1584 1584 1585 1585 1586 1586 1586 1586 1586 1586
1546 1552 1556 1560 1563 1564 1565 1567 1571 1571 1572 1575 1577 1578 1579 1583 1586 1586 1586 1586 1585 1584 1584 1584 1584 1586 1586 1586 1586 1586 1587 1586 1585 1587 1587 1588 1589 1590 1589 1589 1588 1588 1589
1546 1551 1556 1560 1564 1564 1566 1568 1571 1572 1573 1576 1577 1580 1580 1584 1586 1587 1587 1587 1587 1586 1586 1586 1587 1588 1588 1589 1589 1589 1589 1589 1588 1589 1590 1592 1593 1594 1593 1592 1592 1591 1592
1545 1549 1555 1560 1565 1566 1566 1568 1570 1573 1575 1577 1579 1580 1582 1584 1587 1588 1589 1589 1589 1588 1588 1589 1589 1589 1590 1591 1592 1592 1592 1592 1592 1592 1593 1595 1596 1597 1596 1595 1594 1594 1595
1549 1549 1554 1560 1564 1567 1568 1569 1570 1574 1575 1578 1581 1581 1583 1585 1587 1588 1589 1590 1590 1590 1590 1590 1591 1592 1593 1594 1594 1595 1595 1595 1595 1595 1596 1598 1599 1600 1599 1598 1597 1598 1599
1547 1551 1553 1558 1563 1566 1568 1570 1571 1574 1576 1578 1582 1583 1584 1586 1587 1589 1590 1591 1591 1592 1592 1592 1594 1595 1595 1596 1597 1597 1597 1598 1598 1598 1599 1601 1601 1602 1602 1602 1602 1601 1600
1547 1550 1555 1557 1561 1566 1567 1570 1573 1576 1577 1580 1581 1585 1584 1586 1588 1589 1590 1592 1593 1593 1594 1596 1597 1598 1598 1599 1599 1600 1600 1600 1601 1601 1601 1603 1604 1605 1604 1604 1604 1603 1602
1549 1552 1554 1556 1560 1563 1566 1569 1573 1576 1576 1579 1580 1585 1586 1587 1588 1589 1590 1592 1594 1595 1597 1598 1599 1599 1600 1601 1601 1602 1603 1603 1603 1604 1604 1605 1606 1606 1606 1606 1606 1605 1604
1545 1550 1555 1556 1559 1561 1564 1568 1572 1574 1576 1579 1580 1585 1587 1588 1588 1590 1591 1592 1594 1596 1598 1601 1601 1602 1602 1603 1603 1604 1604 1605 1605 1605 1607 1607 1608 1608 1609 1609 1608 1608 1607
1542 1547 1551 1556 1558 1560 1564 1566 1569 1572 1575 1577 1581 1585 1588 1588 1589 1590 1592 1593 1596 1598 1600 1601 1602 1603 1604 1604 1605 1605 1606 1606 1607 1607 1609 1609 1610 1611 1611 1611 1611 1610 1610
1540 1544 1548 1553 1557 1560 1562 1565 1568 1570 1575 1577 1581 1585 1588 1589 1589 1591 1592 1594 1596 1599 1600 1601 1602 1604 1606 1607 1607 1607 1607 1608 1608 1608 1610 1611 1611 1612 1613 1613 1613 1612 1612
1536 1540 1545 1549 1555 1559 1561 1563 1565 1571 1574 1577 1581 1585 1588 1589 1590 1591 1593 1594 1596 1599 1600 1602 1602 1604 1607 1608 1608 1608 1608 1609 1610 1611 1611 1611 1612 1612 1613 1614 1614 1615 1613
1534 1540 1542 1548 1553 1557 1560 1563 1567 1569 1572 1576 1580 1584 1587 1589 1590 1592 1592 1594 1596 1599 1600 1602 1603 1606 1608 1609 1609 1610 1610 1610 1611 1612 1612 1613 1613 1613 1613 1614 1614 1615 1614
1532 1536 1541 1546 1551 1555 1559 1563 1567 1568 1571 1574 1578 1583 1586 1588 1590 1591 1592 1594 1596 1597 1599 1602 1604 1605 1607 1609 1609 1610 1611 1611 1612 1613 1613 1614 1614 1614 1615 1614 1614 1614 1614
1527 1532 1538 1544 1549 1554 1559 1562 1566 1567 1570 1573 1577 1581 1583 1586 1588 1589 1591 1593 1595 1596 1598 1601 1604 1606 1606 1607 1609 1610 1611 1611 1613 1613 1613 1614 1614 1615 1615 1615 1614 1614 1614
1525 1530 1536 1540 1546 1552 1557 1561 1565 1567 1569 1572 1576 1579 1581 1584 1586 1588 1589 1590 1593 1596 1598 1600 1602 1605 1608 1608 1609 1610 1611 1611 1612 1613 1613 1614 1614 1614 1614 1614 1614 1614 1614
1523 1527 1531 1533 1541 1547 1551 1556 1560 1563 1567 1569 1573 1576 1579 1581 1582 1584 1586 1588 1590 1593 1596 1598 1600 1603 1605 1607 1608 1610 1611 1611 1611 1611 1611 1611 1612 1613 1613 1614 1613 1613 1613
1520 1524 1529 1532 1530 1540 1546 1552 1556 1561 1565 1569 1571 1574 1576 1578 1580 1582 1582 1583 1586 1590 1593 1595 1597 1599 1602 1603 1605 1608 1610 1611 1610 1610 1609 1609 1610 1610 1611 1612 1612 1611 1612
1517 1522 1525 1529 1532 1537 1545 1551 1554 1559 1564 1565 1566 1569 1570 1574 1577 1580 1582 1582 1583 1586 1588 1591 1594 1596 1598 1600 1602 1604 1605 1605 1605 1607 1607 1607 1607 1608 1608 1609 1609 1609 1609
1514 1517 1520 1525 1530 1532 1538 1545 1549 1552 1555 1558 1563 1564 1566 1570 1574 1578 1580 1582 1583 1583 1585 1588 1591 1594 1597 1598 1599 1600 1602 1603 1603 1603 1603 1604 1605 1604 1605 1605 1605 1605 1606
1509 1515 1519 1520 1526 1531 1534 1539 1545 1550 1554 1556 1558 1560 1566 1568 1571 1574 1577 1580 1583 1584 1584 1585 1587 1589 1592 1595 1595 1596 1599 1600 1600 1600 1600 1600 1600 1601 1602 1602 1601 1601 1602
1507 1512 1515 1516 1520 1527 1531 1533 1538 1544 1549 1552 1555 1559 1563 1565 1567 1570 1573 1575 1579 1583 1584 1585 1587 1587 1588 1590 1593 1594 1595 1596 1596 1597 1597 1598 1598 1598 1598 1598 1598 1598 1597